Regional Weather Roundup
Issued by NWS Goodland, KS

Home | Current Version | Previous Version | Graphics & Text | Print | Product List | Glossary On
Versions: 1 2 3 4 5 6 7 8 9 10 11 12 13 14 15 16 17 18 19 20 21 22 23 24 25 26 27 28 29 30 31 32 33 34 35 36 37 38 39 40 41 42 43 44 45 46 47 48 49 50
000
ASUS43 KGLD 301059
RWRGLD

GOODLAND FORECAST AREA HOURLY WEATHER ROUNDUP
NATIONAL WEATHER SERVICE GOODLAND KS
500 AM MDT TUE JUN 30 2015

...OFFICIAL OBSERVATIONS...

CITY           SKY/WX    TMP DP  RH WIND       PRES   REMARKS
GOODLAND KS    CLEAR     63  54  72 W9        30.07S
HILL CITY KS   CLEAR     65  55  70 W6        30.00S
IMPERIAL NEB   CLEAR     61  56  83 SW3       30.03S
MCCOOK NEB     CLEAR     62  58  86 W8        30.00S
AKRON CO       CLEAR     65  53  65 SW10      30.12F
BURLINGTON CO  CLEAR     61  53  75 W9        30.12R
LIMON CO       PTCLDY    52  52 100 N6        30.20F
$$

...UNOFFICIAL OBSERVATIONS...

CITY           SKY/WX    TMP DP  RH WIND       PRES   REMARKS
COLBY KS       CLEAR     63  59  88 W7        30.06S
GOVE KS          N/A     59  32  36 MISG        N/A
NORTON KS      CLEAR     59  52  77 SW9       29.98S
SHARON SPRINGS   N/A     61  54  78 SW6         N/A
KIT CARSON CO    N/A     55  48  78 MISG        N/A
$$



USA.gov is the U.S. government's official web portal to all federal, state and local government web resources and services.